Theta_e
316 316 318 319 318 318 317 313 305 305 305 305 305 305 305 305 304 305 305 304 304 304 304 305 305 307 307 308 310 311 312 312 312 313 314 312 315 314 313 315 314 316 318 318 318
313 315 316 317 319 318 318 318 317 306 304 305 305 305 305 306 306 306 306 305 303 303 304 304 305 306 309 310 310 312 312 312 311 312 312 311 311 311 312 312 313 313 314 316 317
304 310 312 315 316 318 318 318 318 318 307 304 304 304 305 305 306 306 306 306 305 303 303 304 305 307 309 310 311 311 312 311 310 309 309 311 310 310 312 313 313 314 312 311 314
306 305 305 309 313 315 317 318 318 318 319 309 304 304 304 305 309 306 306 305 305 303 303 304 306 308 309 310 310 310 310 309 309 309 310 311 310 311 310 313 312 310 309 309 310
304 305 306 302 302 308 313 317 318 318 318 318 308 304 304 304 306 307 306 306 304 303 303 304 307 308 309 309 310 310 310 309 308 308 308 308 310 310 310 310 310 309 309 309 309
303 303 304 306 305 301 301 312 316 318 318 319 315 305 304 304 306 306 306 307 305 304 304 305 306 307 308 309 310 309 310 310 310 310 309 310 311 308 311 309 309 308 309 309 309
303 302 303 304 306 305 300 300 313 316 317 318 317 309 304 305 305 306 307 307 307 304 304 305 307 307 308 309 308 308 309 310 309 309 310 308 310 310 310 308 308 308 308 308 309
301 301 302 302 304 305 304 300 299 312 316 316 316 308 308 310 305 304 306 307 306 305 303 305 307 308 308 307 307 308 309 309 308 307 308 308 311 309 307 307 308 308 308 309 308
301 302 301 302 302 303 303 304 300 302 315 315 313 308 309 309 308 305 304 306 306 304 304 306 308 308 308 309 308 308 309 308 309 307 307 307 310 308 306 307 310 310 309 309 309
300 301 302 301 301 302 302 303 300 308 310 312 307 308 312 309 307 305 304 305 304 304 307 308 308 309 308 308 307 308 307 306 307 308 308 309 309 310 309 308 310 311 310 309 309
300 300 301 301 301 301 302 302 306 308 309 310 311 312 307 308 305 305 305 305 305 307 307 308 308 308 308 308 306 305 306 306 306 305 308 310 310 310 310 309 309 310 310 309 309
300 301 300 301 301 301 301 302 305 308 309 308 310 310 310 305 306 306 306 306 307 308 307 308 307 308 308 307 306 306 306 306 307 306 308 309 309 310 310 310 310 310 310 308 307
301 300 301 302 302 302 302 301 303 305 308 308 309 310 311 309 306 307 306 306 307 307 308 308 307 306 306 306 306 306 306 306 306 306 306 306 308 310 309 307 306 306 307 308 308
299 300 301 300 301 302 302 301 302 303 306 306 310 311 310 310 308 307 307 307 307 307 308 307 306 305 306 306 306 306 306 306 306 306 306 306 308 310 310 309 308 309 308 308 307
298 299 300 300 300 301 302 301 303 302 305 305 309 310 310 310 310 308 307 306 308 307 307 308 305 306 306 306 306 307 305 306 307 307 307 307 307 309 307 309 311 310 309 308 308
297 298 299 300 300 300 301 301 302 305 304 304 310 310 310 310 310 307 307 307 306 307 306 307 304 305 306 304 306 305 307 307 307 308 312 308 307 309 309 310 311 308 308 308 308
296 297 299 299 299 299 301 301 303 305 304 307 310 310 311 312 311 310 309 308 309 309 309 307 306 305 304 306 305 307 309 315 315 316 315 306 306 309 310 307 309 310 308 309 309
295 295 296 299 298 297 300 302 304 304 304 308 309 310 311 312 312 309 311 311 312 313 318 311 312 307 305 308 307 307 308 317 315 313 311 304 309 311 308 306 305 307 308 308 310
294 295 296 296 299 298 299 303 304 304 304 304 310 310 311 311 312 310 311 313 311 313 318 315 315 307 306 305 307 308 309 309 309 302 311 310 309 309 309 307 306 306 306 306 309
295 294 296 294 295 299 299 302 303 303 302 303 307 309 310 312 311 312 311 312 312 311 313 312 315 305 305 306 306 307 307 309 311 316 314 313 311 313 311 310 308 306 305 305 306
295 295 295 294 295 296 300 300 302 301 302 302 303 306 307 310 312 312 311 311 311 310 309 311 313 306 306 309 309 308 308 307 309 311 316 317 314 313 314 312 309 308 305 305 305
295 295 294 295 297 297 298 299 300 302 301 302 302 303 305 308 311 313 312 310 310 310 310 310 311 311 309 306 306 309 310 308 311 313 310 313 315 309 309 308 306 307 306 305 306
294 293 294 294 296 296 296 298 299 301 302 302 303 303 304 306 309 312 311 310 309 311 311 311 312 313 309 308 306 308 307 309 311 311 314 315 314 307 307 307 306 306 305 306 306
293 295 293 294 295 297 296 295 296 298 299 302 302 303 304 304 306 308 311 309 308 310 310 310 313 314 315 314 311 308 308 308 310 314 314 313 314 313 311 309 305 303 305 305 305
294 294 294 296 295 296 296 296 296 299 300 301 302 303 304 304 305 306 308 310 308 309 310 309 313 311 313 311 311 310 309 308 310 312 314 314 313 311 312 312 308 304 304 304 304
293 294 293 296 295 295 295 297 295 295 298 301 301 302 303 305 305 306 307 309 310 308 310 309 312 312 312 308 309 310 310 308 308 310 311 311 311 312 310 306 305 304 304 304 304
293 292 293 295 296 296 295 295 298 297 297 298 301 301 302 303 303 304 306 305 304 308 309 310 310 311 314 306 309 311 310 308 309 309 311 312 312 308 307 306 307 305 305 305 305
Wind_Speed
11 10 9 4 7 8 8 7 8 8 7 8 7 8 8 10 11 12 12 9 8 14 9 5 10 9 8 7 6 6 5 7 5 5 0 1 4 3 3 3 4 5 4 5 7
17 14 13 12 5 8 10 9 7 8 9 9 8 9 9 10 13 15 11 10 9 10 11 10 11 11 5 5 5 6 5 7 2 2 2 1 3 2 4 5 7 7 12 10 10
17 20 20 19 14 10 9 12 10 9 9 9 9 8 10 11 12 2 2 5 13 9 9 12 9 10 5 5 7 5 6 4 4 7 4 4 4 3 4 8 12 10 10 13 14
11 16 18 23 22 19 15 8 13 12 11 10 9 9 8 7 4 1 2 2 8 11 11 11 11 7 6 7 7 5 9 6 2 3 3 4 4 6 11 11 7 7 9 11 15
13 14 13 17 19 24 25 17 10 13 13 13 12 9 8 6 9 10 8 5 5 11 12 13 13 7 6 5 5 7 5 5 8 9 9 9 14 12 19 20 18 19 16 16 15
14 16 16 14 17 17 18 24 17 13 13 14 13 10 8 7 8 9 7 5 6 10 12 14 8 9 4 3 8 1 6 9 8 12 9 7 10 3 9 8 12 15 17 19 24
16 16 16 16 14 17 17 16 25 14 12 14 14 11 12 20 9 8 7 7 8 9 12 14 7 7 5 3 4 1 5 7 11 8 6 7 10 15 22 15 13 13 12 13 17
18 18 18 17 16 14 15 15 16 23 9 14 13 11 10 13 15 20 11 7 8 10 9 13 10 8 1 1 0 2 2 4 2 7 3 7 13 2 2 9 14 16 12 10 16
22 20 18 16 18 17 16 14 13 17 11 12 10 8 10 11 19 19 17 17 10 10 10 12 11 4 4 2 3 3 5 7 4 7 3 8 8 2 2 3 6 8 11 11 11
23 22 18 16 17 18 16 13 8 6 16 11 9 6 17 10 13 14 18 16 13 17 11 9 4 5 4 8 8 8 5 4 6 4 5 7 20 16 13 10 12 11 11 11 14
26 23 22 18 16 16 13 10 3 6 20 18 9 10 4 12 9 11 18 18 13 11 9 9 8 14 20 20 4 2 4 6 2 0 4 13 18 18 20 18 19 20 19 16 17
26 25 21 19 19 16 14 12 8 1 9 31 34 19 14 10 6 14 22 14 10 9 10 6 15 14 9 10 12 9 5 6 5 1 4 9 17 19 17 17 20 22 21 19 18
27 26 23 20 18 20 19 18 15 13 8 15 29 39 28 21 10 21 31 12 10 12 17 12 5 13 12 9 12 14 16 10 5 5 4 9 17 13 6 12 12 16 18 19 21
27 26 27 21 21 22 21 14 18 9 5 9 12 18 30 20 13 16 31 15 6 15 12 10 7 8 12 16 14 13 14 14 10 4 6 2 8 9 4 9 8 13 14 14 17
29 30 26 27 21 19 21 17 12 8 6 7 15 10 24 30 17 20 36 16 13 11 9 7 12 14 8 10 18 5 5 10 9 9 5 9 7 7 3 9 13 13 16 14 14
34 30 29 30 27 22 17 18 17 7 14 5 12 15 15 31 13 16 25 12 9 9 4 4 1 6 5 4 17 12 8 6 3 3 5 10 10 8 9 9 5 4 15 16 17
34 31 30 30 30 26 23 25 8 13 2 9 9 11 21 14 19 16 20 17 12 8 13 9 9 4 6 8 4 6 10 2 2 3 6 4 7 13 7 9 6 6 15 15 19
29 31 37 33 34 31 31 10 18 23 27 8 9 16 18 18 18 16 21 20 25 15 11 12 8 14 10 7 11 10 8 5 7 6 2 3 9 6 8 5 12 9 14 17 19
34 36 35 40 33 36 30 18 19 19 25 14 13 17 14 19 12 16 20 26 24 26 13 12 11 12 14 5 10 7 7 2 5 2 2 6 7 10 11 13 10 10 15 20 23
36 38 42 40 41 35 17 32 14 20 9 26 23 18 19 16 19 20 21 21 21 25 17 8 4 3 7 6 2 8 10 4 2 6 8 7 6 8 3 13 8 10 13 18 22
38 32 36 42 37 33 16 21 18 24 28 15 31 24 20 21 21 16 19 13 32 23 20 6 3 3 7 13 17 7 6 4 3 5 5 8 10 9 14 8 14 15 18 20 24
39 14 38 40 17 8 18 15 29 24 36 20 13 23 25 25 23 18 30 22 27 23 28 17 3 7 11 2 4 18 17 13 9 10 6 5 12 3 5 3 5 16 19 20 24
32 21 21 35 18 19 19 17 23 13 28 27 20 17 24 25 25 26 18 21 15 23 19 19 7 7 4 3 4 10 11 21 15 2 11 7 16 1 4 6 8 12 19 22 24
11 5 16 29 33 17 22 27 23 35 23 27 26 25 22 26 24 16 26 13 22 24 25 16 5 20 18 23 13 13 22 19 17 7 21 15 28 12 6 8 5 10 20 22 25
10 8 10 7 13 19 24 20 28 24 28 28 25 27 23 25 26 27 21 23 12 23 22 9 16 15 23 6 17 18 20 20 18 29 14 29 26 20 9 8 7 13 18 21 25
9 6 9 6 21 24 29 24 31 31 18 23 32 27 27 20 25 24 24 22 18 13 22 13 4 16 17 8 7 10 21 23 26 23 19 12 16 17 18 6 11 19 22 24 28
22 29 10 7 13 15 22 30 24 29 28 34 18 26 30 27 29 15 22 7 1 9 16 14 7 7 20 9 5 6 20 28 23 22 30 16 36 6 9 12 18 26 35 36 31
Wind_Direction
275 272 261 270 281 295 306 312 300 293 289 293 300 302 301 298 296 288 282 261 244 240 240 217 203 198 184 176 160 158 229 240 246 208 303 175 226 191 221 226 199 200 200 195 191
271 269 264 264 291 280 289 300 308 297 292 290 294 300 303 303 300 291 269 254 236 230 228 218 199 183 171 164 176 207 223 226 240 255 289 270 260 219 244 214 227 216 230 221 210
275 262 269 269 267 277 280 281 293 301 295 287 289 292 300 310 313 269 296 248 232 220 209 203 197 181 182 166 187 193 237 220 243 234 267 275 259 237 243 242 238 233 214 227 219
300 281 266 260 268 266 268 278 272 280 292 294 284 284 287 297 292 254 13 306 214 202 196 184 174 178 193 200 189 225 241 239 263 221 220 239 279 257 234 246 249 238 236 235 225
278 293 299 274 267 263 265 262 280 262 272 285 286 278 282 264 247 263 281 284 189 194 196 195 175 167 203 200 168 233 252 229 250 252 254 263 257 262 260 257 257 254 243 241 235
294 275 277 299 290 276 265 254 257 267 257 269 273 280 269 251 250 250 255 239 202 195 198 194 208 192 175 193 207 253 261 267 271 255 249 244 262 212 251 243 238 232 243 245 234
283 282 278 272 290 301 276 260 246 259 251 263 261 261 258 255 252 228 234 230 216 205 202 199 182 184 178 180 231 251 290 279 241 240 243 214 254 234 251 245 235 229 252 257 223
283 278 269 261 270 286 302 276 257 240 253 256 259 256 253 259 244 235 219 209 214 204 197 194 192 189 200 287 113 231 218 258 110 178 234 200 259 268 209 227 246 238 233 225 213
269 274 281 264 260 270 290 307 283 242 252 257 248 233 260 243 229 229 219 213 193 187 176 178 169 171 153 200 255 217 253 217 290 199 156 217 278 45 242 224 239 222 212 210 211
264 263 264 268 267 263 276 306 291 226 228 222 223 242 236 231 224 218 205 200 176 165 145 165 167 181 155 183 224 225 231 239 245 164 211 231 260 271 262 271 265 242 238 234 216
265 259 257 258 258 264 268 281 220 226 221 209 210 214 287 207 203 198 191 177 159 158 169 176 205 205 198 203 183 199 252 266 264 112 244 245 263 267 271 264 260 253 248 241 224
259 258 252 247 248 248 254 225 234 294 261 234 240 237 242 204 198 188 179 178 173 181 143 159 228 223 222 199 210 215 246 263 273 193 248 291 281 278 262 255 245 244 244 243 229
252 253 250 245 241 234 229 230 237 274 266 244 231 230 226 225 226 193 180 188 195 178 191 201 150 202 186 188 207 225 223 224 248 324 230 300 277 255 245 242 241 240 242 242 235
254 251 242 238 246 235 229 230 228 271 276 236 207 230 213 209 240 206 183 172 182 200 180 232 189 149 190 215 196 229 215 221 238 266 261 2 290 277 264 259 234 225 222 227 228
255 249 239 230 230 228 225 214 211 154 253 196 186 199 188 185 150 190 188 192 174 169 180 213 177 178 181 206 191 236 165 207 212 218 270 223 271 266 292 267 249 217 211 211 209
251 248 241 233 230 230 219 208 186 185 232 221 161 176 164 197 176 151 182 198 165 168 235 254 196 199 200 122 180 142 110 87 85 181 243 206 216 248 239 225 256 201 202 200 192
251 246 235 227 225 219 201 191 203 213 147 199 184 174 180 177 180 174 183 191 172 159 203 191 205 203 163 123 143 187 165 132 203 205 254 151 203 252 248 246 248 245 202 192 187
246 248 245 224 226 225 212 216 217 206 210 103 171 167 191 175 199 190 179 198 211 201 161 191 214 187 182 187 177 180 192 173 208 199 251 141 232 237 252 271 256 257 200 184 184
245 239 240 239 221 220 209 219 211 219 208 220 166 177 198 200 194 178 198 204 198 198 191 194 227 195 177 150 152 182 208 144 102 52 274 210 260 267 248 250 231 216 186 184 186
237 238 234 234 239 214 218 240 215 228 227 215 210 195 189 196 198 191 191 215 208 207 212 196 169 218 162 143 147 179 138 146 222 216 238 229 262 250 242 242 211 210 208 191 190
231 232 231 227 224 218 225 219 226 221 233 217 220 218 216 195 203 200 206 217 200 196 201 166 199 132 164 212 178 160 175 181 215 222 242 258 250 199 232 217 209 202 204 198 195
229 230 229 218 213 221 232 220 232 225 227 238 245 224 221 212 203 210 212 201 200 180 196 204 191 169 200 12 292 222 206 179 182 206 228 278 257 158 244 258 235 206 197 198 199
220 202 209 204 217 222 225 256 215 219 212 223 229 234 225 228 223 210 210 205 190 186 192 187 203 165 138 282 208 223 213 208 226 47 212 209 254 137 252 249 227 216 198 196 196
204 209 193 202 220 224 216 230 243 232 239 223 218 226 234 226 232 227 220 196 198 195 202 186 212 211 205 210 156 198 204 205 198 189 228 230 255 235 244 242 204 210 200 195 195
214 216 195 185 214 221 221 228 221 235 212 213 227 212 219 227 222 228 228 214 202 193 196 200 219 219 230 238 189 200 194 192 199 215 203 232 235 228 244 230 204 195 195 197 199
210 214 174 227 208 208 218 223 230 227 236 228 222 210 209 230 219 215 222 222 207 205 194 196 221 219 233 227 212 204 196 190 201 215 226 235 262 242 228 186 185 194 194 202 207
232 225 215 215 225 219 216 221 220 221 224 224 218 222 215 220 226 234 236 241 109 215 199 195 178 182 220 173 152 237 199 194 206 212 216 210 237 158 202 218 199 195 201 205 205